Location: Vancouver
(49.2500°N, 123.1330°W)
Time: 19:40:14
(UTC-07:00)

Iridium 35 - Visible Passes

Search period start: 23 April 2014 00:00
Search period end: 03 May 2014 00:00
Orbit: 776 x 779 km, 86.4° (Epoch: 23 April)

Date Brightness Start Highest point End Pass type
(mag) Time Alt. Az. Time Alt. Az. Time Alt. Az.
23 Apr 7.6 02:29:47 10° NNE 02:32:56 16° ENE 02:36:04 10° ESE visible
23 Apr 5.0 04:09:08 10° N 04:14:22 82° W 04:19:04 13° S visible
24 Apr 5.5 03:35:38 10° N 03:40:48 59° E 03:45:17 14° SSE visible
24 Apr 6.4 05:17:14 10° NNW 05:21:04 21° WNW 05:24:53 10° SW visible
25 Apr 6.4 03:02:19 10° NNE 03:07:06 35° ENE 03:11:31 12° SE visible
25 Apr 5.7 04:43:07 10° NNW 04:47:48 35° W 04:51:58 13° SW visible
26 Apr 7.2 02:29:18 10° NNE 02:33:16 21° ENE 02:37:12 10° ESE visible
26 Apr 5.1 04:09:18 10° N 04:14:26 59° W 04:18:15 18° SSW visible
27 Apr 7.6 01:56:57 10° NE 01:59:18 13° ENE 02:01:38 10° E visible
27 Apr 5.0 03:35:41 10° N 03:40:56 82° E 03:44:32 21° S visible
27 Apr 6.7 05:17:58 10° NW 05:20:56 16° WNW 05:23:53 10° WSW visible
28 Apr 5.8 03:02:15 10° N 03:07:18 48° E 03:10:51 19° SSE visible
28 Apr 6.2 04:43:31 10° NNW 04:47:45 26° W 04:51:18 13° SW visible
29 Apr 6.7 02:29:02 10° NNE 02:33:33 29° ENE 02:37:11 14° SE visible
29 Apr 5.5 04:09:31 10° NNW 04:14:26 43° W 04:17:39 20° SW visible
30 Apr 7.3 01:56:11 10° NNE 01:59:39 18° ENE 02:03:06 10° ESE visible
30 Apr 5.0 03:35:47 10° N 03:41:00 74° W 03:44:00 26° S visible
01 May 7.7 01:24:47 10° NE 01:25:37 10° ENE 01:26:28 10° ENE visible
01 May 5.3 03:02:14 10° N 03:07:27 66° E 03:10:22 26° SSE visible
01 May 6.6 04:44:03 10° NNW 04:47:37 19° WNW 04:50:49 11° WSW visible
02 May 6.1 02:28:53 10° N 02:33:46 39° ENE 02:36:44 21° SE visible
02 May 5.9 04:09:50 10° NNW 04:14:23 31° W 04:17:12 19° SW visible
